CAPE
712 943 1021 773 1267 1890 2564 2635 2593 2667 2665 2667 2645 2732 2812 2901 2858 2546 2374 2361 2408 2361 2388 2462 2423 2321 2156 2168 2220 2224 2228 2170 2200 2191 1831 1439 1019 1188 1502 1314 1421 1462 585 486 697 957 1310 1470 1413 1382 1210 1140 1063 1013 946 894 824 768 679 244 33 8 18 20 13 26 2 3 5 6 18 74 56 14 10 7 3 1 0 0 0 0 0 3 4
822 960 1044 1213 992 1650 2132 2648 2712 2742 2753 2736 2697 2740 2818 2862 2878 2729 2474 2440 2373 2406 2554 2537 2416 2249 2214 2260 2238 2204 2221 2215 2249 2277 1927 1201 1187 1284 1629 1689 1300 1202 805 694 806 1260 1132 1240 1332 1269 1257 1120 1054 892 937 856 869 774 503 213 47 12 9 11 31 8 0 2 8 5 19 47 24 9 6 4 3 2 1 0 7 0 0 0 0
1261 1453 1600 1204 1201 1314 1508 2046 2578 2796 2773 2832 2816 2788 2839 2908 2939 2452 1996 2512 2374 2476 2662 2614 2429 2322 2337 2308 2252 2254 2246 2318 2208 2182 1821 1444 1286 1489 1704 1758 1281 906 696 692 912 662 532 1036 1274 1293 1333 1154 986 911 830 837 837 685 458 211 55 4 0 0 7 8 4 17 16 18 7 6 7 6 8 9 5 4 2 0 0 0 0 2 3
1264 1614 1197 1063 1046 1439 1294 1946 2484 2764 2770 2805 2784 2859 2844 2893 2463 1846 1462 1844 2216 2652 2734 2601 2440 2391 2347 2372 2299 2338 2298 2357 2183 2114 1826 1405 1431 1487 1603 1199 1134 979 789 650 676 670 568 1013 1272 1194 1208 1121 1048 912 852 892 744 516 241 66 11 4 7 7 1 0 2 9 15 2 0 3 10 10 10 5 3 12 4 0 0 24 0 0 0
1564 1558 1595 980 990 1282 1276 1709 2222 2685 2722 2791 2841 2890 2914 2825 2263 2024 1452 1547 1638 2113 2717 2615 2505 2454 2404 2355 2390 2329 2362 2367 2230 1940 1858 1684 1394 1318 1377 1075 1049 834 669 654 715 706 628 694 871 995 1136 997 941 911 980 907 725 555 448 148 70 19 3 3 2 0 0 0 0 1 0 0 4 10 11 5 10 6 2 3 3 1 1 1 0
1542 1574 1835 1707 1008 1204 1230 1182 1422 2158 2842 2927 2946 2909 2902 2927 2472 2109 1943 1272 1740 1890 2534 2673 2588 2500 2428 2498 2490 2419 2294 2278 2253 1873 1404 1294 1438 1543 1071 1253 1178 955 768 695 638 628 607 647 831 887 1006 934 769 772 768 876 691 406 277 149 72 37 53 38 10 0 0 0 0 3 0 0 0 2 3 3 6 4 5 1 4 3 1 0 0
1388 1832 1885 1598 1161 1228 1110 1432 1423 2062 2546 3035 2971 2954 2962 3023 2996 2354 2076 1622 1511 1621 1717 2591 2647 2505 2557 2534 2411 2403 2429 2224 2067 1815 1824 1690 1660 1593 1416 1140 1205 1150 864 712 635 572 572 593 626 783 822 814 792 591 878 845 541 362 244 179 126 67 32 25 1 0 0 37 6 0 0 0 0 2 10 32 0 6 4 4 3 3 3 2 1
1914 1989 1788 1644 904 1299 1392 1394 1608 1709 2452 3082 3147 3079 3076 3051 3027 2890 2086 1659 1609 1711 1685 1884 2331 2486 2418 2371 2351 2358 2386 2021 1693 1821 1827 1717 1651 1547 1491 1345 1185 1131 872 816 732 632 568 573 638 794 784 800 921 691 705 900 619 374 240 222 198 95 10 0 0 0 0 11 0 0 0 0 0 0 2 17 4 6 17 7 6 4 5 1 0
1743 1720 1195 1157 1626 1289 1432 1582 1343 1818 2263 3049 3124 3126 3077 3106 3049 3024 2812 2096 1971 1810 2106 2311 2406 2383 2036 2235 2066 2103 2191 1973 1924 1847 1796 1686 1642 1528 1469 1448 1390 1236 1260 1130 1114 985 739 575 588 816 976 819 941 658 607 711 487 321 273 208 110 35 2 0 0 0 102 2 1 0 0 0 0 0 8 11 10 6 0 0 2 4 2 3 1
1744 1736 1835 1621 1869 1291 1358 1421 1515 1831 2076 2648 3137 3084 3120 3178 3158 3064 3010 2980 2637 2548 2659 2544 2457 2165 2042 2104 1880 2001 1890 1820 1908 1999 1726 1895 1772 1657 1516 1551 1497 1446 1385 1408 1288 1147 1019 878 697 696 889 839 764 629 599 790 630 549 350 176 92 56 12 0 0 18 13 0 0 0 0 1 0 0 4 9 2 4 4 14 10 2 2 2 2
1896 1869 2133 1473 1325 1220 1336 1517 1556 1735 2051 2284 3070 3078 3160 3214 3240 3112 3016 2935 2814 2641 2526 2451 2361 2311 2036 1855 1681 1710 1822 1586 1633 1800 1837 1854 1933 1728 1724 1653 1634 1550 1515 1559 1413 1033 821 861 760 763 929 870 680 463 610 801 586 442 275 177 69 2 0 0 30 0 3 4 6 10 0 0 2 0 3 4 3 1 0 1 2 2 3 3 3
1423 1994 2260 2076 1466 1308 1281 1382 1493 1823 1700 2080 2363 3249 3046 3145 3168 3099 3015 2876 2769 2626 2537 2389 2248 2236 2105 1945 1824 1829 1898 1558 1630 2083 2043 2059 1850 1747 1814 1761 1771 1772 1792 1573 1142 906 814 816 1018 1120 1004 856 735 659 744 630 474 265 181 94 68 10 0 0 50 1 0 2 5 0 0 6 5 0 2 5 4 4 0 1 2 3 3 2 3
1391 1338 1804 2278 2078 1266 1068 1220 1097 1456 1217 1572 1861 2053 3157 2961 3032 3040 2939 2797 2691 2578 2344 2054 2010 2079 2077 1831 1792 1844 1748 1417 1590 2279 2185 1991 1885 1767 1816 1838 1787 1614 1659 1520 1077 881 976 1142 1128 1103 1032 902 711 680 632 483 559 430 288 294 255 148 51 2 0 0 13 6 1 8 26 76 28 0 8 4 2 2 3 3 2 2 3 2 0
1436 1433 1332 1481 1624 1255 1151 1015 758 1094 1123 1426 1652 1915 2380 3129 3000 2852 2697 2623 2566 2387 2254 2081 1871 1917 2065 2152 2056 1864 1750 1849 1978 2100 2031 1932 1916 1831 1790 1761 1647 1414 1324 1285 934 796 997 1059 1032 1033 927 764 690 723 709 525 599 645 435 281 304 297 110 50 0 0 0 5 8 25 15 4 0 1 2 3 0 1 0 2 3 1 3 3 2
1440 1789 1945 1932 1601 1196 926 488 632 921 1316 1230 1132 1322 1799 2827 2823 2657 2593 2588 2506 2339 2353 2292 2136 2012 2057 2191 2216 2158 1820 2024 2091 2226 2013 2054 1938 1873 1764 1635 1608 1304 1219 1228 941 892 863 769 810 956 987 797 882 876 823 803 663 456 307 205 243 215 86 0 0 0 0 0 14 1 32 16 0 0 2 4 3 4 2 2 0 1 2 3 4
1300 1657 1896 1937 1672 1059 760 678 955 1102 1361 1258 1364 1366 1611 2352 2596 2596 2615 2567 2470 2363 2332 2372 2284 2147 2055 2128 2326 2489 2330 2341 2299 2260 2218 2064 1897 1876 1690 1625 1541 1216 1186 1285 1158 732 723 702 858 900 833 805 964 972 864 606 470 386 326 305 260 172 137 360 0 0 0 0 4 25 36 1 0 7 4 2 1 1 1 2 2 2 3 3 1
188 643 1266 1892 1531 1107 1129 779 545 716 931 1328 1242 1244 1521 1728 2035 2526 2640 2544 2512 2417 2435 2427 2390 2257 2149 2260 2464 2462 2394 2361 2369 2217 2279 2165 2068 1868 1697 1472 1359 1313 1218 1174 1152 870 766 714 596 645 966 1179 1104 934 851 715 499 415 502 356 180 124 105 190 0 0 0 0 1 37 118 0 0 5 2 1 2 2 2 5 2 1 1 1 1
0 0 58 478 1592 1634 1622 1054 958 708 745 1158 1386 1365 1416 1664 1935 2483 2632 2545 2505 2423 2394 2289 2397 2389 2397 2438 2548 2565 2466 2432 2068 2145 2368 2181 1968 1826 1720 1587 1409 1334 1190 953 928 950 801 848 512 313 632 882 1033 938 870 747 505 513 463 305 193 195 47 91 0 0 0 0 8 42 41 0 0 2 2 3 0 0 5 2 2 2 3 2 1
0 0 0 0 227 984 1335 1373 1490 1491 1048 863 1190 1325 1382 1395 1767 2063 2153 2484 2532 2423 2323 2322 2452 2512 2532 2524 2626 2611 2530 1952 1592 1517 1644 1623 2023 1849 1824 1721 1566 1336 1179 976 810 875 786 989 704 537 572 918 753 1126 890 809 519 552 483 340 260 201 66 136 0 0 0 0 0 0 4 0 0 0 2 2 2 3 5 2 3 3 3 1 2
0 0 0 0 0 210 777 972 1143 1201 1018 1127 1328 1350 1196 1260 1517 1630 1843 2117 2620 2520 2359 2453 2492 2584 2610 2591 2556 2278 2190 1932 1645 1404 1108 998 1036 1212 1870 1858 1612 1386 1352 1038 822 835 892 925 1054 789 874 979 775 644 702 808 594 654 513 317 248 181 0 0 0 0 0 0 0 7 0 0 0 1 3 2 2 2 5 3 3 2 2 1 0
0 0 0 0 0 0 118 604 948 1181 1027 930 915 1400 1165 1167 1270 1570 1405 1609 2252 2644 2642 2656 2660 2710 2588 2584 2069 1733 1764 794 1724 937 972 1162 813 920 1785 1779 1656 1618 1580 1382 1080 908 1007 1066 1013 870 689 485 689 582 788 821 666 696 523 317 272 16 2 10 0 0 0 0 0 0 0 0 0 3 3 4 7 1 3 4 2 1 1 2 1
0 0 0 0 0 0 0 188 738 1040 1150 935 1113 902 1054 1193 1239 1415 1591 1704 2129 2813 2699 2402 2333 1873 1980 1903 1641 1260 1443 1933 930 1176 1324 1106 1192 1412 1270 1680 1749 1632 1703 1632 1560 1321 1090 962 640 433 324 276 140 16 358 826 628 659 517 390 172 18 10 0 0 0 0 0 4 0 0 0 0 4 2 1 3 1 1 2 3 3 2 3 1
0 0 0 0 0 0 0 0 370 840 1015 1198 1332 1195 1224 1063 1551 1566 1539 1586 1916 1316 1136 631 951 1002 1031 1048 925 1266 1686 1874 2224 1650 953 594 1531 1588 1448 1147 1595 1653 1686 1686 1456 1129 940 864 610 341 178 102 57 12 15 158 557 668 632 409 112 0 0 43 0 0 1 7 70 0 0 1 0 2 2 1 1 3 5 7 4 4 0 0 2
0 0 0 0 0 0 0 0 103 701 856 1338 1480 1066 1298 1298 1356 1521 1432 1932 2200 1779 1073 828 819 1146 750 939 1593 2046 987 1579 1284 1477 1185 991 1452 1555 1410 973 1495 1634 1928 1548 1370 1074 702 505 341 30 0 30 13 14 9 83 211 397 368 208 128 44 1 4 0 0 25 0 23 40 1 2 0 2 1 0 2 3 5 4 4 2 0 1 4
0 0 0 0 0 0 0 0 1 191 552 828 1575 1447 1125 1152 1251 1469 1410 1535 1692 2225 2221 1020 1401 1727 990 1421 1355 1813 1067 1877 1402 2120 2074 808 1481 1169 1446 782 1142 1840 1496 585 530 629 312 160 4 0 4 1 6 6 13 66 260 334 274 228 124 140 19 14 30 53 46 1 46 206 92 54 34 1 2 2 2 2 1 1 5 2 1 0 2
0 0 0 0 0 0 0 0 0 17 321 518 1009 1105 1313 1165 1280 1460 1438 1404 1664 2004 2004 1734 1435 2074 2246 1171 1248 1806 1704 1815 1806 1486 1511 1431 1573 1969 1678 1200 1035 380 480 414 269 340 227 242 65 22 58 24 4 6 16 67 143 291 237 187 121 172 71 14 39 43 58 60 243 223 279 93 152 5 1 2 1 4 1 0 1 2 1 0 0
0 0 0 0 0 0 0 0 0 0 12 81 388 730 966 1039 1152 873 1072 1444 1689 1667 1320 1233 2142 2154 1965 1592 1438 1464 1768 1754 1572 1900 1467 1673 1148 1006 912 512 622 716 293 591 398 407 295 280 259 208 152 81 21 6 17 60 134 156 198 162 218 139 95 78 44 64 80 80 291 198 212 147 44 0 6 1 2 3 1 1 2 2 0 1 2
0 0 0 0 0 0 0 0 0 0 0 0 15 88 159 465 723 918 856 790 870 1134 1347 1214 1705 1784 2257 2089 1798 1570 1799 1714 1850 1613 1674 1633 1540 938 660 803 1067 920 507 565 446 500 340 372 386 319 188 67 24 24 5 8 91 140 217 195 163 111 156 79 92 170 161 128 276 194 304 335 167 2 10 5 3 1 2 3 2 2 0 1 2
0 0 0 0 0 0 0 0 0 0 0 0 0 0 0 72 585 728 653 780 931 898 754 1314 1502 1608 2007 2164 2137 1791 1480 1659 1970 2175 2534 1641 1753 1414 1100 931 861 908 900 554 234 312 335 418 401 357 267 120 56 25 5 2 28 118 215 188 187 120 137 146 122 198 163 124 219 278 288 301 388 42 0 6 6 1 5 5 2 0 0 0 4
0 0 0 0 0 0 0 0 0 0 0 0 0 0 0 0 316 600 736 775 696 841 692 649 1080 1598 1788 1916 2079 2297 1789 1960 2014 1884 1718 2038 1868 1666 1358 1113 939 977 1109 660 443 358 368 453 384 313 132 142 52 30 10 4 3 42 185 328 254 226 143 174 154 112 149 194 203 472 315 167 373 20 7 14 12 4 6 5 4 3 2 1 1
0 0 0 0 0 0 0 0 0 0 0 0 0 0 0 0 0 302 557 409 511 632 555 540 591 795 1066 1752 1866 2048 2106 1986 1300 1992 1299 1050 1887 1711 1730 1386 1266 1228 1052 592 516 422 434 425 389 317 136 57 31 12 9 7 3 2 61 201 313 264 249 187 185 123 100 84 110 249 142 250 250 56 0 15 23 6 4 7 6 6 5 0 0
0 0 0 0 0 0 0 0 0 0 0 0 0 0 0 0 0 0 280 314 413 503 571 512 632 539 732 913 1105 1746 2106 2306 2061 2095 1466 2095 2054 1900 1526 1404 1478 1216 1023 715 707 539 424 346 358 436 314 210 84 24 9 8 4 0 6 100 282 291 292 285 260 130 57 118 52 62 221 91 188 55 10 21 38 44 13 10 10 9 2 2 3
0 0 0 0 0 0 0 0 0 0 0 0 0 0 0 0 0 0 0 0 219 357 353 441 355 330 90 632 921 874 1612 2305 2778 1679 1150 1757 2186 2357 1923 1562 1394 1286 1267 1147 807 804 443 406 482 488 327 131 102 50 7 9 1 0 0 38 187 302 312 231 228 206 68 45 24 9 12 6 56 45 6 44 28 65 44 14 15 13 6 2 0
0 0 0 0 0 0 0 0 0 0 0 0 0 0 0 0 0 0 0 0 0 0 131 320 299 179 0 340 594 757 1134 1545 1915 2361 1896 1358 1965 1888 1413 1026 1012 1227 1300 1561 1313 1027 427 375 377 480 365 124 39 36 7 2 2 0 0 2 105 256 295 136 182 132 65 12 12 18 10 4 4 36 5 57 25 30 43 63 13 14 12 9 4
0 0 0 0 0 0 0 0 0 0 0 0 0 0 0 0 0 0 0 0 0 0 0 14 15 174 302 0 166 721 742 796 954 1615 1961 1860 1746 1683 1750 730 1134 1305 1438 1380 1039 1124 694 408 390 326 276 123 49 2 3 1 0 0 0 7 14 91 157 108 59 58 10 22 17 12 12 9 3 0 0 0 13 26 20 159 18 13 14 13 11
0 0 0 0 0 0 0 0 0 0 0 0 0 0 0 0 0 0 0 0 0 0 0 0 0 0 0 241 110 179 680 793 663 824 1067 1164 1438 1454 1282 2210 1801 1045 1184 1284 916 999 857 545 370 348 364 117 65 8 0 0 0 0 0 1 31 68 136 44 48 24 24 12 8 10 8 11 8 6 7 2 0 0 8 25 19 9 9 8 6
1 5 2 0 0 0 0 0 0 0 0 0 0 0 0 0 0 0 0 0 0 0 0 0 0 0 0 0 0 1 190 531 682 728 565 662 805 1105 1153 2134 2425 1620 1222 1224 1043 721 1036 639 569 461 482 437 88 33 15 0 0 0 0 0 15 65 60 31 42 57 4 10 12 6 8 12 8 16 15 8 1 1 34 33 14 24 6 7 4
26 30 9 12 7 1 0 4 0 0 0 0 0 0 0 0 0 0 0 0 0 0 0 0 0 0 0 0 0 0 0 0 277 592 715 530 599 751 760 821 877 1459 1199 1180 856 395 494 809 801 631 542 632 288 43 12 0 0 0 0 0 0 31 45 40 18 22 12 8 8 4 0 4 4 5 6 4 0 2 8 4 3 8 8 7 6
58 46 36 6 8 7 0 1 0 0 0 0 0 0 0 0 0 0 0 0 0 0 0 0 0 0 0 0 0 0 0 0 0 0 383 421 474 498 542 502 675 827 956 1683 973 739 587 673 504 672 454 577 455 145 18 0 0 0 0 0 0 17 32 34 18 16 12 7 2 3 0 1 1 2 13 9 6 0 1 10 15 3 7 0 12
77 72 51 53 12 16 1 1 0 0 0 0 0 0 0 0 0 0 0 0 0 0 0 0 0 0 0 0 0 0 0 0 0 0 0 197 202 214 294 310 480 537 576 724 659 633 768 636 558 490 411 498 235 189 48 0 0 0 0 0 0 0 5 42 64 18 17 8 3 0 0 1 0 0 2 2 1 1 0 5 12 0 0 1 0
126 84 39 34 44 8 12 32 9 0 0 0 0 0 0 0 0 0 0 0 0 0 0 0 0 0 0 0 0 0 0 0 0 0 0 0 161 179 27 4 161 204 314 374 430 443 879 560 581 418 384 266 273 146 41 0 0 0 0 0 0 0 0 18 30 19 9 4 0 1 2 0 0 0 0 2 0 1 0 1 1 5 0 7 1
109 87 36 20 46 47 6 52 0 0 0 0 0 0 0 0 0 0 0 0 0 0 0 0 0 0 0 0 0 1 0 0 0 0 0 0 0 36 186 100 0 58 120 132 343 377 536 908 753 583 424 325 184 101 52 6 0 0 0 0 0 0 0 2 6 5 3 0 3 12 8 2 0 0 0 0 0 0 0 0 0 0 1 0 3
52 113 69 49 105 58 14 18 0 0 0 0 0 0 0 0 0 0 0 0 0 0 0 0 0 0 0 0 0 0 0 0 1 1 1 1 1 1 0 74 81 74 182 381 407 373 559 778 757 720 345 310 220 68 50 7 0 0 0 0 0 0 0 0 0 0 0 0 8 8 2 3 2 1 0 0 0 0 0 0 0 0 0 0 0
101 141 134 128 102 18 47 20 3 0 0 0 0 0 0 0 0 0 0 0 0 0 0 0 0 0 0 0 4 2 2 0 1 0 1 2 5 5 6 5 7 8 30 49 243 283 372 408 605 487 507 17 26 53 52 1 0 0 0 0 3 0 0 0 0 0 0 0 1 9 9 5 0 2 0 0 0 0 0 0 0 0 0 0 0
122 56 163 113 113 51 88 20 0 0 0 0 0 0 0 3 0 0 0 0 0 0 0 0 0 0 0 6 7 8 3 2 3 6 4 4 6 8 8 9 10 13 17 18 2 150 304 436 268 330 285 230 77 26 10 1 0 0 0 0 0 0 0 0 12 0 0 0 0 0 6 6 3 1 0 0 0 0 0 0 0 0 0 0 0
84 120 182 160 130 72 97 11 0 0 0 0 0 0 0 0 0 0 0 0 0 0 0 0 0 0 1 5 6 7 5 5 4 5 5 4 7 6 11 13 16 8 19 47 252 537 801 621 634 546 441 276 156 11 9 8 1 0 0 0 0 1 4 1 42 59 7 0 2 0 6 7 2 0 0 0 0 0 0 0 0 0 0 0 0
78 206 253 190 132 132 79 2 0 0 0 0 0 0 0 0 0 0 0 0 0 0 0 0 0 0 1 4 4 5 4 5 8 7 7 7 7 6 6 5 7 12 16 28 79 275 501 575 589 436 496 327 82 16 45 144 57 0 0 48 38 22 101 14 17 19 3 27 4 3 2 0 1 0 1 0 0 0 0 0 0 0 0 0 0
181 308 196 160 142 136 75 10 0 0 0 0 0 0 0 0 0 0 0 0 0 0 0 0 0 0 0 2 2 4 6 7 6 6 7 7 7 7 7 6 2 0 6 12 34 109 328 433 529 360 435 372 148 0 119 513 118 27 0 19 34 36 65 10 35 12 2 11 9 2 4 1 4 4 3 1 0 0 6 0 0 0 0 0 0
432 218 163 170 155 130 60 9 0 0 0 0 0 0 0 0 0 0 0 0 0 0 0 0 0 0 0 0 1 2 5 6 5 6 8 7 5 7 9 8 3 2 0 2 11 33 107 195 594 153 142 202 77 8 13 134 155 29 13 10 21 17 19 3 2 0 0 2 2 4 4 1 0 2 1 4 2 4 9 5 0 0 0 0 0
372 174 170 166 146 118 47 7 0 0 0 0 0 0 0 0 0 0 0 0 0 0 0 0 0 0 0 0 0 0 0 2 4 5 7 6 7 8 8 7 9 6 3 1 4 6 20 180 218 390 375 292 194 47 31 21 113 267 278 38 4 32 11 5 3 21 1 10 7 9 5 0 0 0 0 2 9 16 8 13 4 0 0 0 0
247 150 146 158 145 108 54 12 0 0 0 0 0 0 0 0 0 0 0 0 0 0 0 0 0 0 0 0 0 0 0 1 2 5 6 6 7 10 8 8 6 7 3 2 0 4 6 49 90 252 338 194 140 105 17 58 53 71 105 95 60 48 55 14 77 14 9 11 4 0 3 0 2 4 0 1 2 4 5 16 13 4 13 9 0
Wind_Speed
32 27 29 27 25 27 26 26 25 25 25 24 24 24 24 27 27 27 27 27 26 24 23 24 24 22 22 21 20 19 16 14 15 15 13 13 13 11 11 13 14 12 11 11 11 11 10 8 5 2 4 4 4 4 4 4 4 3 6 8 nan nan nan nan nan nan nan nan nan nan nan nan nan nan nan nan nan nan nan nan nan nan nan nan nan
29 28 26 29 24 17 24 24 21 21 22 21 22 23 23 25 27 27 28 28 28 25 23 23 24 24 23 20 19 19 15 13 13 15 14 14 12 11 10 13 14 12 12 12 9 10 9 7 5 2 3 4 5 4 4 4 4 4 5 7 nan nan nan nan nan nan nan nan nan nan nan nan nan nan nan nan nan nan nan nan nan nan nan nan nan
26 29 27 28 24 14 23 22 20 21 21 20 20 21 22 23 25 28 27 28 28 26 24 23 24 25 25 21 18 17 15 13 12 14 14 15 13 10 11 12 15 14 13 13 10 9 7 6 5 3 2 4 4 5 4 4 5 5 6 7 nan nan nan nan nan nan nan nan nan nan nan nan nan nan nan nan nan nan nan nan nan nan nan nan nan
25 27 31 31 26 23 18 21 19 21 22 21 21 22 22 23 29 34 28 28 22 26 26 26 23 24 26 22 18 15 14 13 13 13 13 13 13 12 11 12 16 15 13 11 10 9 6 4 4 2 3 3 5 6 5 5 7 7 7 nan nan nan nan nan nan nan nan nan nan nan nan nan nan nan nan nan nan nan nan nan nan nan nan nan nan
24 27 28 29 26 18 15 19 20 21 23 24 23 24 25 27 31 34 35 29 24 22 24 25 23 23 24 23 20 15 14 14 14 14 13 10 11 13 12 12 15 14 12 10 10 9 6 4 3 2 3 3 4 6 6 8 8 8 9 8 nan nan nan nan nan nan nan nan nan nan nan nan nan nan nan nan nan nan nan nan nan nan nan nan nan
25 25 25 27 25 19 17 21 20 20 22 25 25 26 26 29 32 34 39 33 25 23 17 22 23 22 22 23 20 17 16 14 14 16 15 9 8 12 11 14 14 13 11 8 7 8 6 3 3 3 2 3 4 5 7 9 8 8 9 9 nan nan nan nan nan nan nan nan nan nan nan nan nan nan nan nan nan nan nan nan nan nan nan nan nan
26 25 25 24 24 23 21 20 22 20 22 24 26 27 27 28 30 33 36 35 31 27 19 18 20 21 20 22 19 15 14 15 16 15 12 10 10 10 13 15 12 12 11 7 5 5 4 3 5 4 2 2 4 5 9 10 9 8 10 11 13 nan nan nan nan nan nan nan nan nan nan nan nan nan nan nan nan nan nan nan nan nan nan nan nan
25 24 26 24 23 28 24 25 25 23 23 23 23 27 28 27 28 31 33 34 34 31 27 20 18 18 18 19 18 16 15 16 16 13 12 11 11 12 13 15 12 9 8 7 6 5 3 3 5 4 3 4 6 5 9 11 10 10 12 13 14 nan nan nan nan nan nan nan nan nan nan nan nan nan nan nan nan nan nan nan nan nan nan nan nan
28 28 29 22 28 28 28 28 27 26 24 21 22 26 27 27 26 28 30 32 34 31 29 26 22 18 18 19 18 17 16 17 15 13 12 12 12 12 14 13 11 7 6 5 5 4 3 4 5 5 5 6 7 6 9 12 12 12 13 15 15 nan nan nan nan nan 19 nan nan nan nan nan nan nan nan nan nan nan nan nan nan nan nan nan nan
28 28 27 24 28 26 24 27 25 25 25 21 22 25 25 26 27 29 29 29 30 32 31 29 27 19 18 19 18 19 19 19 16 14 12 12 12 12 13 13 11 9 7 6 6 7 7 7 6 5 5 7 8 8 9 13 13 13 14 15 nan nan nan nan nan nan nan nan nan nan nan nan nan nan nan nan nan nan nan nan nan nan nan nan nan
28 27 25 26 27 22 22 23 24 24 26 25 22 25 27 29 30 31 31 30 29 29 29 30 28 22 21 20 20 21 20 19 16 14 13 12 13 13 13 13 12 9 8 8 10 11 8 9 8 6 5 6 8 8 10 13 13 14 14 15 nan nan nan nan nan nan nan nan nan nan nan nan nan nan nan nan nan nan nan nan nan nan nan nan nan
27 25 23 24 26 24 25 25 30 31 30 29 25 24 27 28 29 30 32 31 30 29 28 29 27 24 23 21 20 20 21 19 15 14 14 13 14 14 14 14 12 11 11 11 11 10 9 9 8 7 6 6 7 10 10 12 14 14 15 nan nan nan nan nan nan nan nan nan nan nan nan nan nan nan nan nan nan nan nan nan nan nan nan nan nan
26 23 23 22 22 31 35 37 38 31 30 26 22 18 22 23 26 29 29 30 30 29 27 27 27 25 22 21 19 20 19 18 16 16 16 14 14 15 14 14 13 12 12 13 12 11 10 10 8 7 6 5 7 10 11 13 13 14 14 16 17 18 nan nan nan nan nan nan nan nan nan nan nan nan nan nan nan nan nan nan nan nan nan nan nan
25 25 24 24 24 35 40 34 35 32 29 21 20 20 16 21 23 25 26 27 29 28 26 25 26 25 23 22 19 18 18 17 15 16 15 13 15 15 14 14 13 12 12 13 12 11 12 10 8 7 7 5 7 10 11 12 13 15 16 16 19 22 24 nan nan nan nan nan nan nan nan nan nan nan nan nan nan nan nan nan nan nan nan nan nan
26 27 27 27 28 32 38 30 30 29 27 28 33 26 17 18 21 22 23 24 26 26 24 24 25 24 22 22 20 19 17 17 16 15 15 13 14 15 15 14 13 13 13 14 13 13 12 11 10 8 8 6 7 9 10 12 13 15 15 15 16 21 nan nan nan nan nan nan nan nan nan nan nan nan nan nan nan nan nan nan nan nan nan nan nan
29 29 30 31 30 32 35 29 30 30 21 29 29 23 20 17 16 23 24 23 23 24 24 23 25 24 23 24 22 20 18 16 16 15 14 14 15 15 15 15 14 14 14 16 15 13 13 15 15 13 10 9 9 10 11 13 14 14 13 14 16 23 29 35 nan nan nan nan nan nan nan nan nan nan nan nan nan nan nan nan nan nan nan nan nan
33 33 34 34 36 33 35 35 32 31 28 28 23 18 20 21 21 25 25 23 22 22 22 22 23 25 23 23 20 18 17 15 17 17 16 16 15 15 15 15 15 15 16 16 18 15 14 15 16 14 13 13 12 11 12 12 13 13 14 15 17 20 27 35 nan nan nan nan nan nan 18 nan nan nan nan nan nan nan nan nan nan nan nan nan nan
nan nan nan 36 37 40 39 38 38 35 32 32 29 28 27 28 25 27 26 22 22 21 21 21 22 24 23 21 19 18 18 19 23 20 17 15 15 15 15 15 14 16 16 16 18 17 13 15 16 16 14 13 12 10 10 9 10 12 14 16 16 19 nan nan nan nan nan nan nan nan nan nan nan nan nan nan nan nan nan nan nan nan nan nan nan
nan nan nan nan 39 40 41 40 38 36 37 34 32 31 32 32 28 25 25 21 23 22 22 21 21 22 22 21 19 19 21 22 19 22 19 22 15 17 15 14 14 15 15 15 16 16 15 16 16 17 15 15 13 13 10 9 8 10 13 15 16 17 nan 21 nan nan nan nan nan nan nan nan nan nan nan nan nan nan nan nan nan nan nan nan nan
nan nan nan nan nan 39 38 37 36 35 34 34 32 31 31 32 29 25 22 19 22 23 22 20 19 21 22 21 20 18 20 20 19 18 21 19 17 14 15 14 14 15 15 14 15 16 16 16 18 19 19 19 18 17 15 12 10 11 11 13 15 16 nan nan nan nan nan nan nan nan nan nan nan nan nan nan nan nan nan nan nan nan nan nan nan
nan nan nan nan nan nan 36 34 35 34 33 33 31 29 31 31 28 25 20 19 20 24 21 20 19 20 20 21 21 17 16 17 15 13 20 17 19 16 14 13 15 15 15 15 15 17 18 20 22 23 23 23 21 19 17 14 12 11 11 12 12 nan nan nan nan nan nan nan nan nan nan nan nan nan nan nan nan nan nan nan nan nan nan nan nan
nan nan nan nan nan nan nan 34 32 34 33 31 30 27 26 24 25 25 22 19 19 23 21 19 18 19 20 18 21 16 16 19 18 15 17 16 19 18 15 13 13 15 16 16 19 21 22 23 23 23 24 23 20 nan 17 16 14 12 11 11 12 nan nan nan nan nan nan nan nan nan nan nan nan nan nan nan nan nan nan nan nan nan nan nan nan
nan nan nan nan nan nan nan nan 34 32 34 32 29 28 25 24 23 23 21 18 18 17 19 19 17 18 19 16 20 14 15 19 19 20 17 19 20 19 16 15 12 16 17 19 20 22 24 25 25 24 24 23 nan nan nan 17 15 14 12 11 14 nan nan nan nan nan nan nan nan nan nan nan nan nan nan nan nan nan nan nan nan nan nan nan nan
nan nan nan nan nan nan nan nan 33 32 31 31 30 26 25 24 23 21 19 18 16 13 15 18 19 18 19 19 19 18 17 18 18 18 23 19 19 16 17 16 12 17 19 20 22 25 26 26 25 nan nan nan nan nan nan nan 17 14 13 13 14 nan nan nan nan nan nan nan nan nan nan nan nan nan nan nan nan nan nan nan nan nan nan nan nan
nan nan nan nan nan nan nan nan nan 31 30 30 30 28 25 24 22 21 19 16 13 13 12 13 17 19 18 21 20 19 18 18 18 19 19 22 17 18 16 14 12 16 15 16 17 20 20 21 nan nan nan nan nan nan nan nan 19 17 15 15 15 17 nan nan nan nan nan nan nan 19 nan nan nan nan nan nan nan nan nan nan nan nan nan nan nan
nan nan nan nan nan nan nan nan nan nan 29 28 30 29 26 26 22 20 18 17 12 11 10 10 15 18 19 19 21 21 20 18 19 18 19 23 21 18 18 16 13 12 10 15 17 18 18 22 nan nan nan nan nan nan nan nan 21 18 17 16 16 17 nan nan nan nan nan nan 22 20 17 nan 15 nan nan nan nan nan nan nan nan nan nan nan nan
nan nan nan nan nan nan nan nan nan nan nan nan 28 28 28 28 26 23 19 18 14 10 8 9 16 19 19 19 21 22 21 21 21 22 20 22 22 20 16 16 14 13 13 13 16 19 19 21 23 23 24 nan nan nan nan nan 23 21 19 18 17 17 nan nan nan nan nan nan 22 18 17 15 nan nan nan nan nan nan nan nan nan nan nan nan nan
nan nan nan nan nan nan nan nan nan nan nan nan nan nan 29 29 27 25 24 22 18 12 10 12 15 17 19 20 20 21 22 23 24 23 23 22 22 22 19 18 17 15 14 13 15 18 21 23 24 25 25 nan nan nan nan nan nan 23 22 20 19 18 18 nan nan 19 19 20 20 20 18 17 16 nan nan nan nan nan nan nan nan nan nan nan nan
nan nan nan nan nan nan nan nan nan nan nan nan nan nan nan nan 28 26 25 23 22 19 18 16 15 17 18 18 20 22 23 22 25 27 29 24 23 23 22 20 19 17 16 14 14 16 20 24 25 25 26 27 nan nan nan nan nan 24 23 20 20 19 19 19 19 19 18 19 19 20 18 18 18 nan nan nan nan nan nan nan nan nan nan nan nan
nan nan nan nan nan nan nan nan nan nan nan nan nan nan nan nan 27 27 25 24 22 21 24 22 18 16 18 17 18 23 27 28 24 27 29 29 26 24 23 22 21 20 20 15 15 15 17 22 25 25 26 27 nan nan nan nan nan nan 24 23 22 21 21 20 20 20 20 21 21 24 19 19 19 nan nan nan nan nan nan nan nan nan nan nan nan
nan nan nan nan nan nan nan nan nan nan nan nan nan nan nan nan nan 25 26 26 23 22 22 19 21 23 21 18 16 19 24 27 25 24 31 28 26 26 25 24 24 24 21 19 19 17 16 19 23 26 26 nan nan nan nan nan nan nan nan 24 23 23 21 21 21 21 20 nan 21 21 21 21 18 nan nan nan nan nan nan nan nan nan nan nan nan
nan nan nan nan nan nan nan nan nan nan nan nan nan nan nan nan nan nan 27 28 25 24 22 22 23 22 24 25 20 18 20 23 25 28 27 29 30 29 28 26 26 26 24 23 22 19 17 17 20 25 27 29 nan nan nan nan nan nan nan 24 25 24 23 22 22 22 nan 21 nan nan 21 nan 20 nan nan nan nan nan nan nan nan nan nan nan nan
nan nan nan nan nan nan nan nan nan nan nan nan nan nan nan nan nan nan nan nan 27 27 25 25 25 25 nan 25 26 21 19 20 24 28 27 29 34 36 32 28 27 28 28 26 24 22 20 19 20 22 25 28 29 nan nan nan nan nan nan nan 26 24 23 23 24 24 nan nan nan nan nan nan nan nan nan nan nan nan nan nan nan nan nan nan nan
nan nan nan nan nan nan nan nan nan nan nan nan nan nan nan nan nan nan nan nan nan nan 28 27 27 27 nan 26 24 23 23 23 23 25 26 28 33 36 34 32 31 30 29 30 27 25 22 22 20 20 23 26 nan nan nan nan nan nan nan nan 27 26 26 25 25 26 nan nan nan nan nan nan nan nan nan nan nan nan nan nan nan nan nan nan nan
nan nan nan nan nan nan nan nan nan nan nan nan nan nan nan nan nan nan nan nan nan nan nan nan nan 29 29 nan 27 26 29 28 26 25 25 26 33 37 38 34 35 34 33 32 30 29 26 24 24 21 21 22 nan nan nan nan nan nan nan nan nan nan 27 27 nan nan nan nan nan nan nan nan nan nan nan nan nan nan nan 17 nan nan nan nan nan
nan nan nan nan nan nan nan nan nan nan nan nan nan nan nan nan nan nan nan nan nan nan nan nan nan nan nan 30 31 31 31 29 29 29 25 23 26 31 34 36 38 37 35 33 32 31 29 27 25 24 23 21 nan nan nan nan nan nan nan nan nan nan 29 nan nan nan nan nan nan nan nan nan nan nan nan nan nan nan nan nan nan nan nan nan nan
nan nan nan nan nan nan nan nan nan nan nan nan nan nan nan nan nan nan nan nan nan nan nan nan nan nan nan nan nan nan 30 30 31 33 32 27 25 25 32 35 38 39 37 36 34 34 32 29 28 27 26 25 nan nan nan nan nan nan nan nan nan nan nan nan nan nan nan nan nan nan nan nan nan nan nan nan nan nan nan nan nan nan nan nan nan
nan nan nan nan nan nan nan nan nan nan nan nan nan nan nan nan nan nan nan nan nan nan nan nan nan nan nan nan nan nan nan nan 30 31 31 33 33 34 34 40 42 38 39 39 38 35 33 32 31 30 30 30 27 nan nan nan nan nan nan nan nan nan nan nan nan nan nan nan nan nan nan nan nan nan nan nan nan nan nan nan nan nan nan nan nan
nan nan nan nan nan nan nan nan nan nan nan nan nan nan nan nan nan nan nan nan nan nan nan nan nan nan nan nan nan nan nan nan nan nan 32 32 33 33 34 35 41 44 42 42 42 37 35 34 31 34 34 33 32 30 nan nan nan nan nan nan nan nan nan nan nan nan nan nan nan nan nan nan nan nan nan nan nan nan nan nan nan nan nan nan nan
nan nan nan nan nan nan nan nan nan nan nan nan nan nan nan nan nan nan nan nan nan nan nan nan nan nan nan nan nan nan nan nan nan nan nan 32 30 31 33 35 39 41 43 42 41 39 35 34 35 35 35 35 35 33 nan nan nan nan nan nan nan nan nan nan nan nan nan nan nan nan nan nan nan nan nan nan nan nan nan nan nan nan nan nan nan
27 nan nan nan nan nan nan nan nan nan nan nan nan nan nan nan nan nan nan nan nan nan nan nan nan nan nan nan nan nan nan nan nan nan nan nan 32 33 nan nan 35 35 34 36 34 33 36 38 40 39 37 37 38 34 nan nan nan nan nan nan nan nan nan nan nan nan nan nan nan nan nan nan nan nan nan nan nan nan nan nan nan nan nan nan nan
26 nan nan nan nan nan nan nan nan nan nan nan nan nan nan nan nan nan nan nan nan nan nan nan nan nan nan nan nan nan nan nan nan nan nan nan nan nan 33 34 nan nan 33 32 30 30 32 38 42 43 40 38 38 34 nan nan nan nan nan nan nan nan nan nan nan nan nan nan nan nan nan nan nan nan nan nan nan nan nan nan nan nan nan nan nan
nan 26 nan nan 26 nan nan nan nan nan nan nan nan nan nan nan nan nan nan nan nan nan nan nan nan nan nan nan nan nan nan nan nan nan nan nan nan nan nan nan nan nan 35 34 30 25 29 35 44 47 45 42 42 nan nan nan nan nan nan nan nan nan nan nan nan nan nan nan nan nan nan nan nan nan nan nan nan nan nan nan nan nan nan nan nan
29 29 28 27 27 nan nan nan nan nan nan nan nan nan nan nan nan nan nan nan nan nan nan nan nan nan nan nan nan nan nan nan nan nan nan nan nan nan nan nan nan nan nan nan 35 33 29 30 39 49 52 nan nan nan nan nan nan nan nan nan nan nan nan nan nan nan nan nan nan nan nan nan nan nan nan nan nan nan nan nan nan nan nan nan nan
29 nan 30 29 29 nan nan nan nan nan nan nan nan nan nan nan nan nan nan nan nan nan nan nan nan nan nan nan nan nan nan nan nan nan nan nan nan nan nan nan nan nan nan nan nan 34 35 36 35 41 47 46 nan nan nan nan nan nan nan nan nan nan nan nan nan nan nan nan nan nan nan nan nan nan nan nan nan nan nan nan nan nan nan nan nan
nan 30 31 31 31 nan nan nan nan nan nan nan nan nan nan nan nan nan nan nan nan nan nan nan nan nan nan nan nan nan nan nan nan nan nan nan nan nan nan nan nan nan nan nan 38 37 36 36 35 36 41 43 45 nan nan nan nan nan nan nan nan nan nan nan nan nan nan nan nan nan nan nan nan nan nan nan nan nan nan nan nan nan nan nan nan
nan 32 33 32 31 32 nan nan nan nan nan nan nan nan nan nan nan nan nan nan nan nan nan nan nan nan nan nan nan nan nan nan nan nan nan nan nan nan nan nan nan nan nan nan nan 40 41 41 40 38 41 45 nan nan nan 49 nan nan nan nan nan nan 42 nan nan nan nan nan nan nan nan nan nan nan nan nan nan nan nan nan nan nan nan nan nan
32 34 33 32 32 33 nan nan nan nan nan nan nan nan nan nan nan nan nan nan nan nan nan nan nan nan nan nan nan nan nan nan nan nan nan nan nan nan nan nan nan nan nan nan nan 43 42 42 43 41 43 46 44 nan 48 50 47 nan nan nan nan nan nan nan nan nan nan nan nan nan nan nan nan nan nan nan nan nan nan nan nan nan nan nan nan
34 33 33 33 33 34 nan nan nan nan nan nan nan nan nan nan nan nan nan nan nan nan nan nan nan nan nan nan nan nan nan nan nan nan nan nan nan nan nan nan nan nan nan nan nan nan 42 40 42 42 43 44 nan nan nan 52 49 nan nan nan nan nan nan nan nan nan nan nan nan nan nan nan nan nan nan nan nan nan nan nan nan nan nan nan nan
33 33 33 34 35 35 nan nan nan nan nan nan nan nan nan nan nan nan nan nan nan nan nan nan nan nan nan nan nan nan nan nan nan nan nan nan nan nan nan nan nan nan nan nan nan nan nan 45 41 41 41 41 41 nan nan nan 50 45 44 nan nan nan nan nan nan nan nan nan nan nan nan nan nan nan nan nan nan nan nan nan nan nan nan nan nan
33 32 33 34 35 36 nan nan nan nan nan nan nan nan nan nan nan nan nan nan nan nan nan nan nan nan nan nan nan nan nan nan nan nan nan nan nan nan nan nan nan nan nan nan nan nan nan nan nan 43 41 40 42 39 nan nan nan nan 44 nan nan nan nan nan nan nan nan nan nan nan nan nan nan nan nan nan nan nan nan nan nan nan nan nan nan
Wind_Direction
256 257 256 262 255 266 262 265 268 272 274 274 273 275 276 277 275 276 277 274 274 278 281 280 279 276 275 277 277 274 270 272 272 273 276 286 293 294 289 278 268 267 300 316 311 313 316 311 298 293 305 302 294 284 284 269 248 210 199 213 nan nan nan nan nan nan nan nan nan nan nan nan nan nan nan nan nan nan nan nan nan nan nan nan nan
258 268 268 266 258 255 273 268 266 275 278 280 282 279 278 280 280 278 276 272 273 276 279 281 281 276 273 275 278 273 270 270 269 270 274 281 289 294 286 273 275 276 292 301 301 316 315 308 297 297 294 298 296 287 277 272 244 197 187 207 nan nan nan nan nan nan nan nan nan nan nan nan nan nan nan nan nan nan nan nan nan nan nan nan nan
256 257 269 272 278 252 276 276 274 274 277 280 285 282 279 279 277 271 263 273 276 276 277 276 277 278 277 276 277 274 270 266 266 272 281 288 297 295 290 280 282 288 295 298 301 302 317 304 291 299 303 298 294 277 263 255 236 185 181 194 nan nan nan nan nan nan nan nan nan nan nan nan nan nan nan nan nan nan nan nan nan nan nan nan nan
253 261 263 270 264 249 247 273 275 273 272 278 283 284 282 280 276 278 279 268 266 275 276 273 271 274 277 277 274 272 271 264 261 264 276 290 297 300 293 287 282 288 295 297 294 293 302 296 281 302 306 299 294 280 270 256 234 183 177 nan nan nan nan nan nan nan nan nan nan nan nan nan nan nan nan nan nan nan nan nan nan nan nan nan nan
254 259 265 272 275 269 256 262 265 278 278 279 279 278 284 284 282 279 275 271 267 273 276 270 266 269 272 274 274 271 260 254 258 263 266 267 292 296 291 283 277 286 297 300 294 293 296 293 282 272 288 306 290 286 277 255 229 179 163 178 nan nan nan nan nan nan nan nan nan nan nan nan nan nan nan nan nan nan nan nan nan nan nan nan nan
256 256 262 267 274 278 269 264 264 278 284 283 280 280 285 287 285 278 274 274 267 263 278 271 264 268 271 270 267 262 261 255 255 259 270 286 277 274 281 276 274 284 292 299 300 298 301 302 260 242 266 307 294 282 273 248 219 183 166 171 nan nan nan nan nan nan nan nan nan nan nan nan nan nan nan nan nan nan nan nan nan nan nan nan nan
252 262 263 267 272 274 260 269 267 272 280 281 283 285 287 288 284 279 276 278 276 266 259 270 259 264 268 267 266 260 255 262 259 266 274 271 265 269 271 271 265 266 283 294 290 292 299 268 252 229 226 282 277 282 271 242 214 186 168 169 181 nan nan nan nan nan nan nan nan nan nan nan nan nan nan nan nan nan nan nan nan nan nan nan nan
259 258 260 265 274 273 272 281 278 272 275 284 285 286 284 284 283 278 280 282 284 277 275 275 254 252 256 260 259 249 245 249 254 259 265 268 263 264 268 275 276 280 288 287 278 274 273 251 246 228 233 268 270 272 261 236 208 184 170 167 174 nan nan nan nan nan nan nan nan nan nan nan nan nan nan nan nan nan nan nan nan nan nan nan nan
258 257 263 265 270 274 271 277 281 278 280 282 282 280 275 274 277 273 272 277 281 282 279 277 270 256 247 251 252 244 241 246 248 255 263 267 264 259 259 265 263 257 260 261 243 239 236 237 239 236 258 278 281 270 250 232 204 186 176 167 170 nan nan nan nan nan 137 nan nan nan nan nan nan nan nan nan nan nan nan nan nan nan nan nan nan
258 258 258 270 273 272 271 271 280 279 280 274 273 273 267 267 273 273 268 266 269 273 272 269 271 263 244 248 248 242 237 237 243 251 264 264 263 261 255 257 255 242 235 230 223 220 214 208 217 235 260 276 279 268 246 229 204 189 181 171 nan nan nan nan nan nan nan nan nan nan nan nan nan nan nan nan nan nan nan nan nan nan nan nan nan
254 252 255 263 272 274 271 270 281 273 271 272 262 267 265 267 275 276 272 269 266 267 266 264 265 259 244 242 247 245 240 242 246 256 269 270 268 264 254 253 249 236 225 220 221 231 224 213 215 225 244 266 268 258 242 225 207 191 184 172 nan nan nan nan nan nan nan nan nan nan nan nan nan nan nan nan nan nan nan nan nan nan nan nan nan
250 251 251 258 271 271 265 261 247 240 238 247 244 262 270 271 272 272 272 268 268 268 268 263 259 257 247 241 243 245 247 249 249 250 260 261 267 265 258 254 246 231 218 222 231 235 226 227 233 236 238 251 269 262 241 225 210 196 181 nan nan nan nan nan nan nan nan nan nan nan nan nan nan nan nan nan nan nan nan nan nan nan nan nan nan
243 247 255 261 266 262 256 260 263 251 256 252 246 245 267 274 274 270 271 269 266 267 269 265 259 256 245 240 241 241 247 250 244 243 251 259 264 267 262 255 246 232 221 221 232 234 229 229 231 234 236 244 271 266 243 228 212 200 182 168 157 154 nan nan nan nan nan nan nan nan nan nan nan nan nan nan nan nan nan nan nan nan nan nan nan
241 245 251 262 267 266 258 261 272 277 267 251 269 258 231 273 274 270 274 272 265 263 264 264 260 258 249 240 233 232 236 239 245 249 252 260 262 266 261 254 243 233 224 219 225 231 227 225 226 228 237 248 264 260 245 229 207 196 187 173 164 154 147 nan nan nan nan nan nan nan nan nan nan nan nan nan nan nan nan nan nan nan nan nan nan
243 245 249 254 265 269 274 275 274 260 242 251 267 280 260 268 275 264 273 274 266 262 262 261 260 259 256 251 238 225 232 235 234 246 250 254 259 258 256 253 240 230 221 214 215 230 226 220 220 216 213 213 227 239 233 223 212 201 193 178 168 152 nan nan nan nan nan nan nan nan nan nan nan nan nan nan nan nan nan nan nan nan nan nan nan
246 249 252 252 255 271 269 268 271 263 253 257 262 269 282 275 276 268 275 275 266 262 264 264 262 258 253 257 249 226 228 232 231 240 244 249 256 253 253 251 239 230 218 208 205 220 223 216 210 211 214 203 209 215 215 217 213 205 191 179 169 163 158 153 nan nan nan nan nan nan nan nan nan nan nan nan nan nan nan nan nan nan nan nan nan
250 250 253 255 256 252 269 280 276 278 282 278 284 286 295 284 279 282 281 281 273 267 266 268 266 263 257 261 264 243 230 230 230 235 240 247 255 251 253 251 240 226 219 209 201 216 222 216 210 211 209 198 202 213 209 209 209 203 190 178 173 172 166 155 nan nan nan nan nan nan 181 nan nan nan nan nan nan nan nan nan nan nan nan nan nan
nan nan nan 255 258 265 265 273 285 286 280 284 291 295 294 286 279 285 285 287 284 276 267 266 269 266 261 263 268 256 242 230 221 227 238 248 254 255 250 252 241 226 221 214 204 217 223 218 208 207 207 203 202 206 208 203 208 202 193 184 176 170 nan nan nan nan nan nan nan nan nan nan nan nan nan nan nan nan nan nan nan nan nan nan nan
nan nan nan nan 256 260 264 267 271 275 281 285 289 289 286 289 288 286 292 290 290 283 271 266 265 264 261 258 260 259 246 239 235 236 235 217 246 256 249 250 243 228 224 216 202 207 216 215 207 201 200 200 201 198 197 203 209 206 198 193 183 171 nan 156 nan nan nan nan nan nan nan nan nan nan nan nan nan nan nan nan nan nan nan nan nan
nan nan nan nan nan 259 261 263 264 265 269 274 285 291 290 294 295 295 294 291 293 288 280 271 265 261 259 255 254 257 247 242 245 247 247 243 224 250 251 252 248 229 219 220 206 199 212 216 202 200 198 199 202 201 194 192 206 212 203 198 189 172 nan nan nan nan nan nan nan nan nan nan nan nan nan nan nan nan nan nan nan nan nan nan nan
nan nan nan nan nan nan 259 261 261 262 262 267 276 288 289 294 296 300 299 300 298 291 286 278 264 258 259 255 254 250 238 237 249 247 252 247 240 233 246 254 251 232 219 222 213 204 209 216 205 201 202 203 202 205 202 197 205 217 212 199 193 nan nan nan nan nan nan nan nan nan nan nan nan nan nan nan nan nan nan nan nan nan nan nan nan
nan nan nan nan nan nan nan 258 258 259 261 265 272 283 292 302 303 305 309 303 305 301 294 281 272 258 254 248 244 236 234 235 240 242 243 244 249 245 249 251 253 242 218 218 219 212 211 214 212 205 204 205 205 nan 203 205 208 218 218 212 178 nan nan nan nan nan nan nan nan nan nan nan nan nan nan nan nan nan nan nan nan nan nan nan nan
nan nan nan nan nan nan nan nan 257 257 263 265 270 280 289 291 297 306 304 306 298 309 295 282 258 253 252 242 245 237 231 231 235 241 233 241 240 246 254 258 255 253 229 216 218 215 211 211 212 209 205 204 nan nan nan 210 209 214 219 202 178 nan nan nan nan nan nan nan nan nan nan nan nan nan nan nan nan nan nan nan nan nan nan nan nan
nan nan nan nan nan nan nan nan 256 258 261 266 271 274 279 284 288 295 297 295 292 293 296 274 244 231 240 236 231 233 234 227 235 247 250 235 229 238 251 265 262 259 242 222 220 216 216 215 215 nan nan nan nan nan nan nan 212 209 204 198 189 nan nan nan nan nan nan nan nan nan nan nan nan nan nan nan nan nan nan nan nan nan nan nan nan
nan nan nan nan nan nan nan nan nan 259 260 264 267 269 275 277 280 283 287 286 283 287 288 271 233 222 229 230 230 227 230 231 234 232 231 241 234 227 239 242 249 250 263 227 216 218 209 205 nan nan nan nan nan nan nan nan 211 211 208 204 199 203 nan nan nan nan nan nan nan 217 nan nan nan nan nan nan nan nan nan nan nan nan nan nan nan
nan nan nan nan nan nan nan nan nan nan 259 263 265 267 268 269 266 271 272 277 271 274 285 249 218 214 222 227 227 227 224 225 230 226 229 240 237 228 230 238 245 253 250 232 222 220 206 205 nan nan nan nan nan nan nan nan 207 209 211 209 207 208 nan nan nan nan nan nan 224 222 206 nan 199 nan nan nan nan nan nan nan nan nan nan nan nan
nan nan nan nan nan nan nan nan nan nan nan nan 264 267 265 262 256 250 255 252 246 250 259 232 212 215 225 225 227 226 225 224 228 227 228 239 241 236 227 237 246 244 245 235 231 225 213 208 204 205 206 nan nan nan nan nan 201 208 208 210 211 213 nan nan nan nan nan nan 230 233 215 208 nan nan nan nan nan nan nan nan nan nan nan nan nan
nan nan nan nan nan nan nan nan nan nan nan nan nan nan 261 262 258 253 246 237 232 233 228 218 212 220 226 229 228 224 226 225 227 229 230 236 244 246 237 234 236 239 241 237 237 229 221 212 207 207 208 nan nan nan nan nan nan 203 205 209 213 213 213 nan nan 211 211 210 226 233 224 219 220 nan nan nan nan nan nan nan nan nan nan nan nan
nan nan nan nan nan nan nan nan nan nan nan nan nan nan nan nan 263 257 250 241 238 226 219 215 216 221 231 229 232 223 223 226 225 232 226 232 242 245 240 233 236 234 240 238 236 234 226 220 214 207 208 208 nan nan nan nan nan 206 206 208 213 215 214 211 215 215 213 216 210 237 235 228 226 nan nan nan nan nan nan nan nan nan nan nan nan
nan nan nan nan nan nan nan nan nan nan nan nan nan nan nan nan 260 262 260 250 238 229 219 217 213 221 228 232 231 226 222 218 227 232 234 226 235 243 241 235 232 231 235 237 236 235 233 230 223 212 208 209 nan nan nan nan nan nan 208 208 215 216 216 213 215 214 216 212 210 235 236 231 226 nan nan nan nan nan nan nan nan nan nan nan nan
nan nan nan nan nan nan nan nan nan nan nan nan nan nan nan nan nan 257 263 260 252 244 236 228 222 220 223 231 232 229 225 231 226 229 237 236 235 238 240 235 231 229 230 233 235 233 233 234 230 222 212 nan nan nan nan nan nan nan nan 211 213 217 217 215 214 215 216 nan 213 223 234 230 227 nan nan nan nan nan nan nan nan nan nan nan nan
nan nan nan nan nan nan nan nan nan nan nan nan nan nan nan nan nan nan 253 254 255 249 246 243 236 229 225 224 225 228 230 225 229 224 229 235 235 235 236 235 230 229 227 228 234 232 231 233 235 230 221 214 nan nan nan nan nan nan nan 213 218 218 216 217 217 218 nan 217 nan nan 224 nan 230 nan nan nan nan nan nan nan nan nan nan nan nan
nan nan nan nan nan nan nan nan nan nan nan nan nan nan nan nan nan nan nan nan 252 250 244 241 243 243 nan 229 222 220 224 225 231 236 223 231 232 229 231 234 232 229 227 227 230 232 230 232 234 236 234 228 219 nan nan nan nan nan nan nan 219 219 219 219 220 219 nan nan nan nan nan nan nan nan nan nan nan nan nan nan nan nan nan nan nan
nan nan nan nan nan nan nan nan nan nan nan nan nan nan nan nan nan nan nan nan nan nan 246 242 239 241 nan 239 231 224 223 221 222 233 233 226 233 233 229 230 232 232 228 227 229 231 232 234 235 239 242 237 nan nan nan nan nan nan nan nan 219 219 220 220 222 222 nan nan nan nan nan nan nan nan nan nan nan nan nan nan nan nan nan nan nan
nan nan nan nan nan nan nan nan nan nan nan nan nan nan nan nan nan nan nan nan nan nan nan nan nan 238 237 nan 240 234 230 225 221 227 230 228 227 231 228 227 230 232 229 227 228 230 233 235 235 237 242 237 nan nan nan nan nan nan nan nan nan nan 222 220 nan nan nan nan nan nan nan nan nan nan nan nan nan nan nan 230 nan nan nan nan nan
nan nan nan nan nan nan nan nan nan nan nan nan nan nan nan nan nan nan nan nan nan nan nan nan nan nan nan 238 238 237 236 234 230 226 229 233 237 234 232 228 225 226 228 227 227 231 233 234 236 235 235 237 nan nan nan nan nan nan nan nan nan nan 225 nan nan nan nan nan nan nan nan nan nan nan nan nan nan nan nan nan nan nan nan nan nan
nan nan nan nan nan nan nan nan nan nan nan nan nan nan nan nan nan nan nan nan nan nan nan nan nan nan nan nan nan nan 239 237 233 232 229 228 234 236 227 223 224 222 225 226 226 226 229 233 237 238 237 233 nan nan nan nan nan nan nan nan nan nan nan nan nan nan nan nan nan nan nan nan nan nan nan nan nan nan nan nan nan nan nan nan nan
nan nan nan nan nan nan nan nan nan nan nan nan nan nan nan nan nan nan nan nan nan nan nan nan nan nan nan nan nan nan nan nan 239 237 237 232 227 228 225 219 218 220 221 225 225 224 225 227 234 239 240 237 230 nan nan nan nan nan nan nan nan nan nan nan nan nan nan nan nan nan nan nan nan nan nan nan nan nan nan nan nan nan nan nan nan
nan nan nan nan nan nan nan nan nan nan nan nan nan nan nan nan nan nan nan nan nan nan nan nan nan nan nan nan nan nan nan nan nan nan 241 237 230 231 230 222 221 219 220 224 224 225 227 228 230 238 240 237 232 229 nan nan nan nan nan nan nan nan nan nan nan nan nan nan nan nan nan nan nan nan nan nan nan nan nan nan nan nan nan nan nan
nan nan nan nan nan nan nan nan nan nan nan nan nan nan nan nan nan nan nan nan nan nan nan nan nan nan nan nan nan nan nan nan nan nan nan 242 238 233 230 229 227 223 218 222 229 228 233 235 235 238 242 239 235 233 nan nan nan nan nan nan nan nan nan nan nan nan nan nan nan nan nan nan nan nan nan nan nan nan nan nan nan nan nan nan nan
275 nan nan nan nan nan nan nan nan nan nan nan nan nan nan nan nan nan nan nan nan nan nan nan nan nan nan nan nan nan nan nan nan nan nan nan 238 238 nan nan 233 232 227 226 230 234 236 238 240 238 240 242 238 235 nan nan nan nan nan nan nan nan nan nan nan nan nan nan nan nan nan nan nan nan nan nan nan nan nan nan nan nan nan nan nan
279 nan nan nan nan nan nan nan nan nan nan nan nan nan nan nan nan nan nan nan nan nan nan nan nan nan nan nan nan nan nan nan nan nan nan nan nan nan 237 237 nan nan 233 228 225 232 236 240 243 244 242 245 244 242 nan nan nan nan nan nan nan nan nan nan nan nan nan nan nan nan nan nan nan nan nan nan nan nan nan nan nan nan nan nan nan
nan 281 nan nan 280 nan nan nan nan nan nan nan nan nan nan nan nan nan nan nan nan nan nan nan nan nan nan nan nan nan nan nan nan nan nan nan nan nan nan nan nan nan 235 232 227 236 241 240 243 241 240 239 242 nan nan nan nan nan nan nan nan nan nan nan nan nan nan nan nan nan nan nan nan nan nan nan nan nan nan nan nan nan nan nan nan
283 282 282 284 280 nan nan nan nan nan nan nan nan nan nan nan nan nan nan nan nan nan nan nan nan nan nan nan nan nan nan nan nan nan nan nan nan nan nan nan nan nan nan nan 230 231 240 252 248 241 238 nan nan nan nan nan nan nan nan nan nan nan nan nan nan nan nan nan nan nan nan nan nan nan nan nan nan nan nan nan nan nan nan nan nan
285 nan 283 282 278 nan nan nan nan nan nan nan nan nan nan nan nan nan nan nan nan nan nan nan nan nan nan nan nan nan nan nan nan nan nan nan nan nan nan nan nan nan nan nan nan 241 243 246 250 245 240 238 nan nan nan nan nan nan nan nan nan nan nan nan nan nan nan nan nan nan nan nan nan nan nan nan nan nan nan nan nan nan nan nan nan
nan 283 282 282 281 nan nan nan nan nan nan nan nan nan nan nan nan nan nan nan nan nan nan nan nan nan nan nan nan nan nan nan nan nan nan nan nan nan nan nan nan nan nan nan 237 240 242 249 255 248 241 239 241 nan nan nan nan nan nan nan nan nan nan nan nan nan nan nan nan nan nan nan nan nan nan nan nan nan nan nan nan nan nan nan nan
nan 281 281 281 282 281 nan nan nan nan nan nan nan nan nan nan nan nan nan nan nan nan nan nan nan nan nan nan nan nan nan nan nan nan nan nan nan nan nan nan nan nan nan nan nan 236 238 242 248 252 241 237 nan nan nan 235 nan nan nan nan nan nan 233 nan nan nan nan nan nan nan nan nan nan nan nan nan nan nan nan nan nan nan nan nan nan
283 281 281 281 284 284 nan nan nan nan nan nan nan nan nan nan nan nan nan nan nan nan nan nan nan nan nan nan nan nan nan nan nan nan nan nan nan nan nan nan nan nan nan nan nan 236 237 241 244 247 243 240 243 nan 233 231 237 nan nan nan nan nan nan nan nan nan nan nan nan nan nan nan nan nan nan nan nan nan nan nan nan nan nan nan nan
282 283 283 283 284 284 nan nan nan nan nan nan nan nan nan nan nan nan nan nan nan nan nan nan nan nan nan nan nan nan nan nan nan nan nan nan nan nan nan nan nan nan nan nan nan nan 236 239 244 249 249 246 nan nan nan 229 232 nan nan nan nan nan nan nan nan nan nan nan nan nan nan nan nan nan nan nan nan nan nan nan nan nan nan nan nan
280 282 283 284 286 286 nan nan nan nan nan nan nan nan nan nan nan nan nan nan nan nan nan nan nan nan nan nan nan nan nan nan nan nan nan nan nan nan nan nan nan nan nan nan nan nan nan 236 241 245 252 253 251 nan nan nan 230 233 233 nan nan nan nan nan nan nan nan nan nan nan nan nan nan nan nan nan nan nan nan nan nan nan nan nan nan
281 284 286 288 289 290 nan nan nan nan nan nan nan nan nan nan nan nan nan nan nan nan nan nan nan nan nan nan nan nan nan nan nan nan nan nan nan nan nan nan nan nan nan nan nan nan nan nan nan 241 245 250 250 250 nan nan nan nan 231 nan nan nan nan nan nan nan nan nan nan nan nan nan nan nan nan nan nan nan nan nan nan nan nan nan nan